This is the latest recevied weather packets stored in our database for station/object KD9NSC. If no packets are shown the sender has not sent any weather packets the latest 10 day(s).
| Time | Temp. | Humidity | Pressure | Rain* | Wind** | Luminosity | Snow |
|---|---|---|---|---|---|---|---|
| 1777949474 | 13.89° C | 97% | 1002.7 hPa | 1.27 mm | - | 0 W/m² | - |
| 1777949171 | 13.89° C | 97% | 1003 hPa | 1.27 mm | - | 0 W/m² | - |
| 1777948869 | 13.89° C | 97% | 1003.4 hPa | 1.78 mm | - | 0 W/m² | - |
| 1777948566 | 13.89° C | 97% | 1003.1 hPa | 1.78 mm | - | 0 W/m² | - |
| 1777948263 | 13.89° C | 97% | 1002.6 hPa | 0 mm | - | 0 W/m² | - |
| 1777947961 | 13.89° C | 97% | 1002.3 hPa | 0 mm | - | 0 W/m² | - |
| 1777947657 | 13.89° C | 97% | 1002.1 hPa | 0 mm | - | 0 W/m² | - |
| 1777947354 | 13.89° C | 97% | 1001.9 hPa | 0 mm | - | 0 W/m² | - |
| 1777947051 | 13.89° C | 97% | 1002.1 hPa | 0 mm | - | 0 W/m² | - |
| 1777946750 | 13.89° C | 97% | 1002.6 hPa | 0 mm | - | 0 W/m² | - |
| 1777946448 | 14.44° C | 97% | 1002.3 hPa | 0 mm | - | 0 W/m² | - |
| 1777946145 | 15° C | 97% | 1002 hPa | 0 mm | - | 0 W/m² | - |
| 1777945841 | 15° C | 97% | 1002 hPa | 0 mm | - | 0 W/m² | - |
| 1777945538 | 15° C | 97% | 1001.8 hPa | 0 mm | - | 0 W/m² | - |
| 1777945236 | 15° C | 97% | 1001.5 hPa | 0 mm | - | 0 W/m² | - |
| 1777944932 | 15° C | 97% | 1001.5 hPa | 0 mm | - | 0 W/m² | - |
| 1777944630 | 15° C | 97% | 1001.8 hPa | 1.27 mm | - | 0 W/m² | - |
| 1777944328 | 14.44° C | 96% | 1002.6 hPa | 1.27 mm | - | 0 W/m² | - |
| 1777944025 | 14.44° C | 96% | 1002.4 hPa | 1.78 mm | - | 0 W/m² | - |
| 1777943720 | 14.44° C | 96% | 1002.6 hPa | 3.05 mm | - | 0 W/m² | - |
| 1777943418 | 13.89° C | 96% | 1002.3 hPa | 3.05 mm | - | 0 W/m² | - |
| 1777943113 | 13.89° C | 96% | 1002 hPa | 0 mm | - | 0 W/m² | - |
| 1777942810 | 13.89° C | 96% | 1002 hPa | 0 mm | - | 0 W/m² | - |
| 1777942506 | 13.89° C | 96% | 1002.1 hPa | 0 mm | - | 0 W/m² | - |
| 1777942204 | 14.44° C | 96% | 1002.3 hPa | 0 mm | - | 0 W/m² | - |
* Rain latest hour (hover to see other rain measurements)
** Current wind speed in m/s (hover to see current wind gust speed)